TimeCDT,TemperatureF,Dew PointF,Humidity,Sea Level PressureIn,VisibilityMPH,Wind Direction,Wind SpeedMPH,Gust SpeedMPH,PrecipitationIn,Events,Conditions,WindDirDegrees,DateUTC
12:53 AM,60.1,60.1,100,30.10,5.0,Calm,Calm,-,N/A,,Clear,0,2012-10-13 05:53:00
1:53 AM,64.0,62.1,93,30.08,8.0,South,3.5,-,N/A,,Partly Cloudy,170,2012-10-13 06:53:00
2:50 AM,66.2,64.4,94,30.09,8.0,South,9.2,-,N/A,,Mostly Cloudy,170,2012-10-13 07:50:00
2:53 AM,66.0,64.0,93,30.06,8.0,South,10.4,-,N/A,,Mostly Cloudy,170,2012-10-13 07:53:00
3:53 AM,66.0,64.0,93,30.05,8.0,South,11.5,19.6,N/A,,Overcast,170,2012-10-13 08:53:00
4:53 AM,66.0,63.0,90,30.07,8.0,SSE,11.5,-,N/A,,Overcast,160,2012-10-13 09:53:00
5:53 AM,64.9,63.0,93,30.06,5.0,South,11.5,17.3,N/A,,Overcast,170,2012-10-13 10:53:00
6:53 AM,64.0,62.1,93,30.05,5.0,South,12.7,23.0,N/A,,Partly Cloudy,170,2012-10-13 11:53:00
7:53 AM,64.9,62.1,90,30.04,7.0,South,9.2,-,N/A,,Scattered Clouds,170,2012-10-13 12:53:00
8:34 AM,66.2,62.6,88,30.08,6.0,South,11.5,-,N/A,,Overcast,170,2012-10-13 13:34:00
8:53 AM,66.0,63.0,90,30.05,6.0,South,15.0,21.9,N/A,,Overcast,180,2012-10-13 13:53:00
9:37 AM,69.8,64.4,83,30.05,9.0,South,16.1,26.5,N/A,,Partly Cloudy,180,2012-10-13 14:37:00
9:53 AM,70.0,64.0,81,30.02,10.0,South,21.9,26.5,N/A,,Partly Cloudy,190,2012-10-13 14:53:00
10:53 AM,71.1,64.0,78,30.01,10.0,South,24.2,32.2,N/A,,Scattered Clouds,180,2012-10-13 15:53:00
11:53 AM,73.0,64.9,76,29.99,10.0,South,21.9,31.1,N/A,,Scattered Clouds,180,2012-10-13 16:53:00
12:53 PM,73.4,64.4,73,29.99,10.0,South,18.4,27.6,N/A,,Overcast,180,2012-10-13 17:53:00
1:53 PM,75.9,64.0,67,29.90,10.0,South,18.4,27.6,N/A,,Scattered Clouds,180,2012-10-13 18:53:00
2:53 PM,73.4,64.4,73,29.93,10.0,South,18.4,25.3,N/A,,Overcast,190,2012-10-13 19:53:00
3:53 PM,72.0,64.9,78,29.88,10.0,South,15.0,23.0,N/A,,Overcast,170,2012-10-13 20:53:00
4:53 PM,70.0,66.0,87,29.88,8.0,South,10.4,21.9,0.00,Rain,Light Rain,170,2012-10-13 21:53:00
5:53 PM,69.1,66.0,90,29.84,10.0,SSE,11.5,18.4,0.00,,Overcast,150,2012-10-13 22:53:00
6:46 PM,69.8,66.2,88,29.85,3.0,SSE,13.8,20.7,0.07,Rain-Thunderstorm,Heavy Thunderstorms and Rain,150,2012-10-13 23:46:00
7:21 PM,69.8,66.2,88,29.84,10.0,SSE,13.8,-,0.02,,Overcast,150,2012-10-14 00:21:00
7:53 PM,70.0,66.0,87,29.80,10.0,SSE,15.0,23.0,0.02,,Scattered Clouds,150,2012-10-14 00:53:00
8:53 PM,71.6,66.2,83,29.82,10.0,SSE,18.4,31.1,N/A,Rain,Light Rain,160,2012-10-14 01:53:00
9:33 PM,69.8,66.2,88,29.84,5.0,South,16.1,26.5,0.06,Rain-Thunderstorm,Light Rain,180,2012-10-14 02:33:00
9:53 PM,68.0,66.0,93,29.83,3.0,West,17.3,26.5,0.13,Rain-Thunderstorm,Thunderstorms and Rain,280,2012-10-14 02:53:00
9:55 PM,68.0,64.4,88,29.87,1.8,West,18.4,31.1,0.13,Rain-Thunderstorm,Heavy Rain,260,2012-10-14 02:55:00
9:58 PM,66.2,64.4,94,29.87,0.8,SSW,18.4,31.1,0.35,Rain-Thunderstorm,Heavy Rain,200,2012-10-14 02:58:00
10:01 PM,66.2,64.4,94,29.86,0.8,SSW,21.9,32.2,0.45,Rain,Heavy Rain,200,2012-10-14 03:01:00
10:05 PM,64.4,62.6,94,29.84,0.8,SSW,11.5,32.2,0.50,Rain-Thunderstorm,Heavy Thunderstorms and Rain,210,2012-10-14 03:05:00
10:10 PM,66.2,62.6,88,29.84,2.0,SSW,12.7,28.8,0.51,Rain-Thunderstorm,Thunderstorms and Rain,210,2012-10-14 03:10:00
10:18 PM,64.4,62.6,94,29.84,4.0,SSW,9.2,-,0.53,Rain-Thunderstorm,Thunderstorms and Rain,210,2012-10-14 03:18:00
10:32 PM,64.4,62.6,94,29.82,7.0,South,13.8,26.5,0.56,Rain,Rain,180,2012-10-14 03:32:00
10:53 PM,64.0,62.1,93,29.79,10.0,South,9.2,-,0.58,Rain,Light Rain,180,2012-10-14 03:53:00
11:11 PM,64.4,62.6,94,29.81,7.0,South,6.9,-,0.03,Rain-Thunderstorm,Rain,190,2012-10-14 04:11:00
11:26 PM,64.4,62.6,94,29.81,7.0,South,4.6,-,0.06,Rain,Rain,190,2012-10-14 04:26:00
11:33 PM,64.4,62.6,94,29.81,6.0,SSW,8.1,-,0.09,Rain-Thunderstorm,Rain,200,2012-10-14 04:33:00
11:46 PM,64.4,62.6,94,29.79,6.0,South,10.4,-,0.13,Rain-Thunderstorm,Thunderstorms and Rain,170,2012-10-14 04:46:00
11:53 PM,64.4,62.6,94,29.77,7.0,SSE,13.8,20.7,N/A,Rain-Thunderstorm,Thunderstorms and Rain,150,2012-10-14 04:53:00